Regional Weather Roundup
Issued by NWS

Home | Current Version | Previous Version | Text Only | Print | Product List | Glossary Off
Versions: 1 2 3 4 5 6 7 8 9 10 11 12 13 14 15 16 17 18 19 20 21 22 23 24 25 26 27 28 29 30 31 32 33 34 35 36 37 38 39 40 41 42 43 44 45 46 47 48 49 50

000
ASUS45 KBOU 230207
RWRCO

WEATHER ROUNDUP FOR COLORADO
NATIONAL WEATHER SERVICE DENVER/BOULDER CO
700 PM MST SUN JAN 22 2017

NOTE: "FAIR" INDICATES FEW OR NO CLOUDS BELOW 12000 FEET WITH NO
SIGNIFICANT WEATHER AND/OR OBSTRUCTIONS TO VISIBILITY.

COZ001>005-013-030-031-230300-
...NORTHWEST COLORADO...

CITY           SKY/WX    TMP DP  RH WIND       PRES   REMARKS
CRAIG          CLOUDY    25  16  68 CALM      29.92F
HAYDEN         MOCLDY    28  12  50 NE5       29.91F WCI  23
MEEKER         FLURRIES  28  22  78 W7        29.93F WCI  21
MOUNT WERNER   NOT AVBL
STEAMBOAT SPGS CLOUDY    22  14  71 N3        29.92S
WALDEN           N/A     21   9  58 SE15      29.88F WCI   8
$$

COZ006>008-011-230300-
...WEST CENTRAL VALLEYS...

CITY           SKY/WX    TMP DP  RH WIND       PRES   REMARKS
GRAND JUNCTION CLOUDY    33  29  85 W7        29.99R WCI  27
MONTROSE       CLOUDY    33  24  69 SE9       30.01F WCI  25
EAGLE          CLOUDY    28  18  64 CALM      29.97F
RIFLE          CLOUDY    32  25  75 W10       29.97F WCI  24
DELTA          CLOUDY    34  28  78 NE14      30.04R WCI  24
NUCLA          NOT AVBL
$$

COZ017>023-064>068-230300-
...SOUTHWEST COLORADO...

CITY           SKY/WX    TMP DP  RH WIND       PRES   REMARKS
DURANGO        FLURRIES  25  21  85 NE8       30.09F WCI  16
CORTEZ         LGT SNOW  29  26  89 CALM      30.08S FOG
PAGOSA SPRINGS LGT SNOW  25  23  93 CALM      30.09S
TELLURIDE      NOT AVBL
WOLF CREEK PAS CLOUDY     9   7  92 SW18      30.02F WCI -10
$$

COZ009-010-012-014-032>034-037-058>063-230300-
...CENTRAL COLORADO...

CITY           SKY/WX    TMP DP  RH WIND       PRES   REMARKS
ASPEN          CLOUDY    25  16  68 SW3       29.92F
BUENA VISTA    CLOUDY    27  11  51 SW15      29.93F WCI  16
COPPER MTN     LGT SNOW  18   9  68 MISG      29.89F
BERTHOUD PASS  CLOUDY    10   0  61 MISG      29.84F
COTTONWOOD PAS CLOUDY    25  14  63 SW9G18    29.93R WCI  15
GUNNISON       LGT SNOW  19  15  84 N3        30.04F FOG
KREMMLING      CLOUDY    27  16  63 E8        29.93F WCI  18
LEADVILLE      CLOUDY    18   7  62 CALM      29.90F
MONARCH PASS     N/A      9   5  85 SW15      30.02F WCI  -8
SALIDA         MOCLDY    32  10  40 S6        30.01F WCI  26
SUNLIGHT       FOG       14  10  85 S12G20    29.95R VSB 1/2 WCI   0
WILKERSON PASS CLOUDY    16   1  53 SW20G25   29.90F WCI  -1
$$

COZ069>075-230300-
...SAN LUIS VALLEY/SANGRE DE CRISTO MOUNTAINS...

CITY           SKY/WX    TMP DP  RH WIND       PRES   REMARKS
ALAMOSA        CLOUDY    24  16  71 E9        30.01F WCI  14
LA VETA PASS   MOCLDY    21   5  49 NE32G43   29.95S WCI   2
SAGUACHE       CLOUDY    23  14  68 E3        30.03F
$$

COZ035-036-038>040-230300-
...NORTHERN COLORADO FRONT RANGE...

CITY           SKY/WX    TMP DP  RH WIND       PRES   REMARKS
DENVER INTL AP MOCLDY    28  18  66 SE10      29.86F WCI  19
DMNS CITY PARK   N/A     37   8  29 E10G20    29.85F
AURORA         MOCLDY    30  16  54 SE12      29.86F WCI  21
FRONT RANGE AP MOCLDY    32  18  55 SE9       29.88F WCI  24
ERIE MUNI ARPT FAIR      37  16  43 SE7       29.88S
BOULDER MUN AP FAIR      36  16  44 CALM      29.87S
CENTENNIAL     CLOUDY    35  13  40 SE15      29.85F WCI  25
BROOMFIELD     MOCLDY    37  10  32 E8        29.87F
FORT COLLINS   FAIR      30  14  51 CALM      29.89S
LONGMONT       FAIR      35  20  53 CALM      29.91S
$$

COZ041-046-047-076>085-087-088-230300-
...PIKES PEAK/PALMER DIVIDE AND SOUTHERN FOOTHILLS...

CITY           SKY/WX    TMP DP  RH WIND       PRES   REMARKS
COLO. SPRINGS  MOCLDY    33  15  47 SE14      29.89F WCI  23
A. F. ACADEMY  FAIR      32  11  41 SE8       29.87F WCI  25
SCHRIEVER AFB  NOT AVBL
ELLICOTT       FAIR     N/A N/A N/A S12       29.89F
FALCON         FAIR      30  13  49 SE7       29.90F WCI  23
FORT CARSON    NOT AVBL
LIMON          FAIR      23  17  78 CALM      29.93R
MONUMENT HILL  FAIR      30  14  51 S13G20    29.89F WCI  20
TRINIDAD       FAIR      30  15  53 NW5       29.95S WCI  25
$$

COZ042>045-048>051-090-091-230300-
...NORTHEAST COLORADO...

CITY           SKY/WX    TMP DP  RH WIND       PRES   REMARKS
GREELEY ARPT   FAIR      33  19  56 SE8       29.90S WCI  26
AKRON          FAIR      34  13  41 CALM      29.91R
BURLINGTON     FAIR      31  24  75 W7        29.93R WCI  24
WRAY           FAIR      28  25  86 SW7       29.92S WCI  21
STERLING       FAIR      30  19  64 N3        29.90S
HOLYOKE        FAIR      34  27  75 W7        29.92R WCI  28
FORT MORGAN    FAIR      32  15  50 E3        29.91F
$$

COZ086-089-092>099-230300-
...SOUTHEAST COLORADO...

CITY           SKY/WX    TMP DP  RH WIND       PRES   REMARKS
PUEBLO         FAIR      38  21  50 E7        29.89F
LA JUNTA       FAIR      37  20  50 S9        29.93F
LAMAR          FAIR      28  23  81 SW5       29.93S WCI  23
SPRINGFIELD      N/A     24  19  81 SW7       29.97S WCI  16
$$



USA.gov is the U.S. government's official web portal to all federal, state and local government web resources and services.